Weather History for Fort Leonard Wood, MO

Change the Weather History Date:

Thursday, January 24, 2013

  Actual Average Record
Temperature  
Mean Temperature 24 °F -  
Max Temperature 31 °F 40 °F 59 °F (2005)
Min Temperature 17 °F 25 °F 0 °F (2014)
Degree Days  
Heating Degree Days 41    
Moisture  
Dew Point 10 °F    
Average Humidity 51    
Maximum Humidity 71    
Minimum Humidity 37    
Precipitation  
Precipitation 0.00 in - - ()
Sea Level Pressure  
Sea Level Pressure 30.35 in    
Wind  
Wind Speed 11 mph (East)    
Max Wind Speed 15 mph    
Max Gust Speed 22 mph    
Visibility 10 miles    
Events      
Averages and records for this station are not official NWS values.
T = Trace of Precipitation, MM = Missing Value Source: NWS Daily Summary

Daily Weather History Graph

Daily Weather History Graph

Search for Another Location

Airport:

Trip Planner

Search our weather history database for the weather conditions in past years. The results will help you decide how hot, cold, wet, or windy it might be!

Date:

Astronomy

Jan. 24, 2013 Rise Set
Actual Time 7:18 AM CST 5:23 PM CST
Civil Twilight 6:50 AM CST 5:51 PM CST
Nautical Twilight 6:18 AM CST 6:23 PM CST
Astronomical Twilight 5:47 AM CST 6:54 PM CST
Moon 3:26 PM CST (1/24) 5:15 AM CST (1/24)
Length of Visible Light 11h 01m
Length of Day
10h 05m
Waxing Gibbous, 94% of the Moon is Illuminated
Jan 24
Waxing Gibbous
Jan 26
Full
Feb 3
Last Quarter
Feb 10
New
Feb 17
First Quarter

Hourly Weather History & Observations

Time (CST) Temp. Windchill Dew Point Humidity Pressure Visibility Wind Dir Wind Speed Gust Speed Precip Events Conditions
12:55 AM 28.9 °F 19.2 °F 19.8 °F 69% 30.35 in 10.0 mi North 11.5 mph - N/A   Clear
1:55 AM 27.0 °F 18.7 °F 18.5 °F 70% 30.36 in 10.0 mi North 8.1 mph - N/A   Clear
2:55 AM 25.2 °F 14.4 °F 17.1 °F 71% 30.38 in 10.0 mi North 11.5 mph - N/A   Clear
3:55 AM 23.0 °F 11.7 °F 11.7 °F 62% 30.40 in 10.0 mi North 11.5 mph 18.4 mph N/A   Clear
4:55 AM 21.0 °F 11.4 °F 11.7 °F 67% 30.42 in 10.0 mi North 8.1 mph - N/A   Clear
5:55 AM 19.6 °F 6.2 °F 10.6 °F 68% 30.43 in 10.0 mi NNE 13.8 mph - N/A   Clear
6:55 AM 17.8 °F 7.5 °F 8.8 °F 68% 30.45 in 10.0 mi NE 8.1 mph - N/A   Clear
7:55 AM 17.1 °F 5.8 °F 8.6 °F 69% 30.46 in 10.0 mi ENE 9.2 mph - N/A   Clear
8:55 AM 17.8 °F 6.6 °F 7.2 °F 63% 30.49 in 10.0 mi NE 9.2 mph - N/A   Partly Cloudy
9:55 AM 19.4 °F 8.6 °F 7.2 °F 59% 30.50 in 10.0 mi ENE 9.2 mph - N/A   Clear
10:55 AM 22.6 °F 12.6 °F 6.8 °F 51% 30.50 in 10.0 mi ENE 9.2 mph - N/A   Clear
11:55 AM 25.9 °F 18.2 °F 6.1 °F 43% 30.46 in 10.0 mi East 6.9 mph - N/A   Clear
12:55 PM 28.6 °F 19.9 °F 6.6 °F 39% 30.42 in 10.0 mi ESE 9.2 mph - N/A   Clear
1:55 PM 29.7 °F 20.7 °F 7.0 °F 38% 30.37 in 10.0 mi East 10.4 mph - N/A   Overcast
2:55 PM 31.3 °F 23.9 °F 7.7 °F 37% 30.34 in 10.0 mi ESE 8.1 mph - N/A   Overcast
3:55 PM 31.3 °F 23.3 °F 7.3 °F 37% 30.32 in 10.0 mi East 9.2 mph - N/A   Overcast
4:55 PM 30.7 °F 22.0 °F 7.2 °F 37% 30.31 in 10.0 mi East 10.4 mph - N/A   Overcast
5:55 PM 30.2 °F 21.9 °F 7.9 °F 39% 30.30 in 10.0 mi East 9.2 mph - N/A   Overcast
6:55 PM 30.2 °F 20.8 °F 8.2 °F 40% 30.29 in 10.0 mi ESE 11.5 mph - N/A   Overcast
7:26 PM 30.2 °F 19.3 °F 8.6 °F 40% 30.28 in 10.0 mi ESE 15.0 mph - N/A   Overcast
7:55 PM 29.5 °F 18.8 °F 9.0 °F 42% 30.25 in 10.0 mi SE 13.8 mph - N/A   Overcast
8:29 PM 30.2 °F 19.3 °F 8.6 °F 40% 30.25 in 10.0 mi SE 15.0 mph 21.9 mph N/A   Overcast
8:55 PM 29.3 °F 19.1 °F 9.5 °F 44% 30.27 in 10.0 mi SE 12.7 mph - N/A   Overcast
9:07 PM 28.4 °F 17.5 °F 8.6 °F 43% 30.25 in 10.0 mi SE 13.8 mph - N/A   Overcast
9:55 PM 29.5 °F 19.9 °F 9.5 °F 43% 30.23 in 10.0 mi SSE 11.5 mph - N/A   Overcast
10:55 PM 28.9 °F 18.2 °F 8.1 °F 41% 30.22 in 10.0 mi SE 13.8 mph - N/A   Overcast
11:55 PM 28.8 °F 20.2 °F 10.9 °F 47% 30.19 in 10.0 mi SSE 9.2 mph - N/A   Overcast